GW5533 Weather Reports


time (UTC)temp
F
wind
direction
speed
knots
gust
knots
rain 1hr
in
rain 24hr
in
rain mn
in
humidity
%
barometer
mb
20260507140516 67 159 5.2 12.2 0.00 0.00 0.00 71 1014.3
20260507140036 67 190 5.2 9.6 0.00 0.00 0.00 71 1014.3
20260507135556 67 149 5.2 10.4 0.00 0.00 0.00 71 1014.3
20260507135016 67 171 6.1 11.3 0.00 0.00 0.00 70 1014.4
20260507134516 67 179 6.1 11.3 0.00 0.00 0.00 71 1014.4
20260507134016 67 150 5.2 13.0 0.00 0.00 0.00 71 1014.3
20260507133516 67 165 6.1 13.0 0.00 0.00 0.00 70 1014.3
20260507133036 67 162 4.3 10.4 0.00 0.00 0.00 70 1014.3
20260507132536 67 155 5.2 10.4 0.00 0.00 0.00 70 1014.3
20260507132036 67 150 6.1 12.2 0.00 0.00 0.00 70 1014.4
20260507131516 67 177 6.1 12.2 0.00 0.00 0.00 71 1014.4
20260507131016 67 172 6.1 12.2 0.00 0.00 0.00 70 1014.4
20260507130556 67 185 7.8 10.4 0.00 0.00 0.00 71 1014.4
20260507123016 67 178 5.2 12.2 0.00 0.00 0.00 71 1014.3
20260507122516 67 129 3.5 11.3 0.00 0.00 0.00 71 1014.2
20260507122036 68 97 4.3 11.3 0.00 0.00 0.00 70 1014.1
20260507121516 68 107 4.3 9.6 0.00 0.00 0.00 71 1014.2
20260507121016 68 118 3.5 9.6 0.00 0.00 0.00 71 1014.1
20260507120516 68 98 2.6 8.7 0.00 0.00 0.00 72 1014.1
20260507120016 68 133 3.5 13.0 0.00 0.00 0.00 71 1014.2
20260507115516 68 119 5.2 13.0 0.00 0.00 0.00 72 1014.2
20260507115015 68 136 4.3 9.6 0.00 0.00 0.00 72 1014.3
20260507114516 67 127 2.6 7.8 0.00 0.00 0.00 73 1014.3
20260507114015 67 168 2.6 7.8 0.00 0.00 0.00 73 1014.5
20260507113516 66 143 2.6 12.2 0.00 0.00 0.00 73 1014.5
20260507113116 67 78 5.2 12.2 0.00 0.00 0.00 72 1014.5
20260507112516 67 123 2.6 7.8 0.00 0.00 0.00 72 1014.5
20260507112016 67 88 3.5 10.4 0.00 0.00 0.00 72 1014.5
20260507111515 67 93 4.3 10.4 0.00 0.00 0.00 72 1014.6
20260507111015 67 106 4.3 10.4 0.00 0.00 0.00 72 1014.5
20260507110515 67 96 5.2 11.3 0.00 0.00 0.00 70 1014.5
20260507110016 68 105 5.2 13.0 0.00 0.00 0.00 69 1014.4
20260507105516 68 104 4.3 13.0 0.00 0.00 0.00 69 1014.3
20260507105015 67 95 4.3 9.6 0.00 0.00 0.00 70 1014.4
20260507104516 67 114 3.5 11.3 0.00 0.00 0.00 72 1014.5
20260507104016 67 93 5.2 12.2 0.00 0.00 0.00 72 1014.5
20260507103515 66 108 4.3 13.0 0.00 0.00 0.00 72 1014.6
20260507103016 66 103 5.2 13.9 0.00 0.00 0.00 74 1014.6
20260507102515 66 79 7.8 13.9 0.00 0.00 0.00 73 1014.6
20260507102035 67 98 5.2 12.2 0.00 0.00 0.00 72 1014.6
20260507101516 66 132 3.5 10.4 0.00 0.00 0.00 73 1014.6
20260507101015 67 119 3.5 9.6 0.00 0.00 0.00 73 1014.6
20260507100515 67 207 1.7 7.8 0.00 0.00 0.00 73 1014.6
20260507100016 67 117 2.6 13.0 0.00 0.00 0.00 73 1014.6
20260507095535 67 96 5.2 13.0 0.00 0.00 0.00 72 1014.5
20260507095015 67 73 4.3 13.9 0.00 0.00 0.00 71 1014.5
20260507094515 67 94 5.2 13.9 0.00 0.00 0.00 71 1014.4
20260507094016 67 89 5.2 13.9 0.00 0.00 0.00 71 1014.3
20260507093535 67 77 5.2 13.9 0.00 0.00 0.00 71 1014.4
20260507093015 67 107 3.5 9.6 0.00 0.00 0.00 71 1014.5
20260507092535 67 137 2.6 7.0 0.00 0.00 0.00 71 1014.5
20260507092016 67 100 3.5 11.3 0.00 0.00 0.00 72 1014.4
20260507091515 66 94 5.2 11.3 0.00 0.00 0.00 72 1014.3
20260507091015 66 99 4.3 12.2 0.00 0.00 0.00 72 1014.3
20260507090515 66 83 6.1 17.4 0.00 0.00 0.00 71 1014.3
20260507090015 66 77 6.1 17.4 0.00 0.00 0.00 71 1014.3
20260507085515 66 85 5.2 15.6 0.00 0.00 0.00 71 1014.3
20260507085015 66 119 4.3 15.6 0.00 0.00 0.00 72 1014.3
20260507084515 66 89 3.5 13.9 0.00 0.00 0.00 71 1014.3
20260507084015 66 97 5.2 14.8 0.00 0.00 0.00 72 1014.2
20260507083516 66 87 6.1 14.8 0.00 0.00 0.00 71 1014.2
20260507083015 65 120 5.2 12.2 0.00 0.00 0.00 72 1014.2
20260507082555 66 102 7.8 11.3 0.00 0.00 0.00 71 1014.2
20260507082015 66 118 5.2 11.3 0.00 0.00 0.00 72 1014.1
20260507081515 65 115 5.2 12.2 0.00 0.00 0.00 73 1014.1
20260507081015 65 81 7.0 12.2 0.00 0.00 0.00 73 1014.0
20260507080515 65 79 6.1 15.6 0.00 0.00 0.00 73 1014.0
20260507080015 65 88 4.3 15.6 0.00 0.00 0.00 74 1014.0
20260507075515 64 89 5.2 13.9 0.00 0.06 0.00 73 1014.0
20260507075015 64 102 7.0 13.9 0.00 0.06 0.00 72 1013.9
20260507074555 65 114 5.2 12.2 0.00 0.06 0.00 73 1013.9
20260507074015 64 107 6.1 12.2 0.00 0.06 0.00 73 1013.8
20260507073515 64 125 7.0 12.2 0.00 0.06 0.00 74 1013.8
20260507073015 64 115 7.0 12.2 0.00 0.06 0.00 74 1013.8
20260507072515 64 124 6.1 12.2 0.00 0.06 0.00 74 1013.8
20260507072035 64 125 5.2 10.4 0.00 0.06 0.00 74 1013.8
20260507071515 64 117 3.5 8.7 0.00 0.06 0.00 74 1013.7
20260507071055 64 128 2.6 8.7 0.00 0.06 0.00 74 1013.6
20260507070515 64 121 2.6 9.6 0.00 0.06 0.00 75 1013.7
20260507070015 63 87 4.3 9.6 0.00 0.06 0.00 75 1013.6
20260507065515 63 87 1.7 7.8 0.00 0.06 0.00 75 1013.5
20260507065015 62 107 3.5 7.8 0.00 0.06 0.00 76 1013.4
20260507064515 62 124 3.5 7.8 0.00 0.06 0.00 76 1013.4
20260507064015 62 121 3.5 7.0 0.00 0.06 0.00 76 1013.4
20260507063515 62 122 2.6 6.1 0.00 0.06 0.00 75 1013.4
20260507063015 62 89 1.7 6.1 0.00 0.06 0.00 75 1013.3
20260507062515 62 106 2.6 7.0 0.00 0.06 0.00 75 1013.3
20260507062015 62 107 2.6 7.0 0.00 0.06 0.00 76 1013.3
20260507061515 62 101 1.7 5.2 0.00 0.06 0.00 76 1013.2
20260507061015 61 116 1.7 7.0 0.00 0.06 0.00 76 1013.2
20260507060515 61 77 3.5 7.0 0.00 0.06 0.00 77 1013.1
20260507060015 61 76 2.6 8.7 0.00 0.06 0.00 77 1013.1
20260507055535 60 78 4.3 9.6 0.00 0.06 0.00 77 1013.2
20260507055015 60 76 3.5 9.6 0.00 0.06 0.00 78 1013.1
20260507054515 60 86 2.6 7.0 0.00 0.06 0.00 78 1013.1
20260507054015 60 83 3.5 7.0 0.00 0.06 0.00 78 1012.9
20260507053515 60 85 1.7 5.2 0.00 0.06 0.00 78 1013.0
20260507053035 60 112 1.7 5.2 0.00 0.06 0.00 78 1013.0
20260507052515 60 90 1.7 6.1 0.00 0.06 0.00 78 1012.9
20260507052015 60 77 2.6 6.1 0.00 0.06 0.00 79 1012.8
20260507051535 60 81 2.6 7.0 0.00 0.06 0.00 79 1012.8
20260507051035 59 72 2.6 7.0 0.00 0.06 0.00 80 1012.8
20260507050515 59 88 1.7 6.1 0.00 0.06 0.00 80 1012.7
20260507050015 59 133 1.7 4.3 0.00 0.07 0.00 80 1012.6
20260507045515 59 84 0.9 4.3 0.00 0.07 0.00 81 1012.7
20260507045035 59 75 1.7 4.3 0.00 0.07 0.00 81 1012.6
20260507044515 59 123 0.9 4.3 0.00 0.08 0.00 81 1012.5
20260507044015 59 119 1.7 4.3 0.00 0.08 0.00 81 1012.4
20260507043535 58 112 1.7 2.6 0.00 0.09 0.00 81 1012.6
20260507043035 58 124 0.9 3.5 0.00 0.10 0.00 81 1012.5
20260507042515 58 75 0.9 3.5 0.00 0.11 0.00 81 1012.5
20260507042015 58 71 1.7 3.5 0.00 0.11 0.00 82 1012.5
20260507041515 58 81 0.9 3.5 0.00 0.11 0.00 82 1012.5
20260507041015 58 82 1.7 3.5 0.00 0.11 0.00 82 1012.5
20260507040516 58 97 0.9 3.5 0.00 0.11 0.00 83 1012.4
20260507040015 58 121 1.7 3.5 0.00 0.11 0.00 83 1012.4
20260507035535 58 126 0.9 5.2 0.00 0.11 0.00 83 1012.4
20260507035015 58 84 1.7 7.0 0.00 0.11 0.00 83 1012.4
20260507034515 58 83 2.6 7.0 0.00 0.11 0.00 83 1012.4
20260507034015 57 84 1.7 4.3 0.00 0.11 0.00 84 1012.4
20260507033555 57 115 2.6 6.1 0.00 0.11 0.00 84 1012.4
20260507033015 57 129 2.6 6.1 0.00 0.12 0.00 84 1012.4
20260507032515 57 92 1.7 3.5 0.00 0.12 0.00 84 1012.4
20260507032015 57 98 0.9 3.5 0.00 0.28 0.00 84 1012.4
20260507031535 57 112 1.7 6.1 0.00 0.45 0.00 85 1012.4
20260507031015 57 127 1.7 6.1 0.00 0.46 0.00 85 1012.4
20260507030515 57 81 1.7 3.5 0.00 0.46 0.00 85 1012.4
20260507030015 57 92 1.7 3.5 0.00 0.48 0.00 85 1012.4
20260507025515 57 118 0.9 3.5 0.00 0.48 0.00 85 1012.5
20260507025035 57 107 0.9 3.5 0.00 0.48 0.00 85 1012.5
20260507024515 57 110 1.7 3.5 0.00 0.49 0.00 85 1012.5
20260507024015 57 104 1.7 7.0 0.00 0.56 0.00 85 1012.5
20260507023535 57 89 2.6 7.0 0.00 0.57 0.00 85 1012.5
20260507023015 57 90 1.7 6.1 0.00 0.57 0.00 85 1012.5
20260507022515 57 104 1.7 6.1 0.00 0.57 0.00 85 1012.5
20260507022015 57 105 1.7 7.0 0.00 0.57 0.00 86 1012.5
20260507021515 57 98 1.7 7.0 0.00 0.59 0.00 86 1012.5
20260507021015 57 87 1.7 6.1 0.00 0.60 0.00 86 1012.6
20260507020515 57 100 0.9 6.1 0.00 0.60 0.00 86 1012.6
20260507020015 57 124 1.7 4.3 0.00 0.61 0.00 86 1012.6
20260507015515 57 123 1.7 4.3 0.00 0.62 0.00 86 1012.5
20260507015035 57 123 1.7 3.5 0.00 0.66 0.00 86 1012.5
20260507014515 57 116 1.7 3.5 0.00 0.66 0.00 85 1012.5
20260507014014 57 112 0.9 3.5 0.00 0.68 0.00 85 1012.4
20260507013515 57 117 1.7 5.2 0.00 0.69 0.00 85 1012.4
20260507013015 57 106 0.9 6.1 0.00 0.69 0.00 85 1012.4
20260507012514 57 78 1.7 6.1 0.00 0.69 0.00 85 1012.5
20260507012015 57 80 2.6 6.1 0.00 0.69 0.00 85 1012.5
20260507011514 57 92 1.7 7.0 0.00 0.69 0.00 85 1012.5
20260507011014 58 83 3.5 7.0 0.00 0.69 0.00 85 1012.6
20260507010515 58 82 1.7 3.5 0.00 0.69 0.00 85 1012.6
20260507010035 58 78 1.7 4.3 0.00 0.69 0.00 85 1012.7
20260507005515 58 74 1.7 5.2 0.00 0.69 0.00 85 1012.6
20260507005014 58 115 1.7 5.2 0.00 0.69 0.00 85 1012.6
20260507004514 58 103 0.9 5.2 0.00 0.69 0.00 85 1012.6
20260507004014 58 114 1.7 5.2 0.00 0.69 0.00 85 1012.6
20260507003534 58 87 0.9 5.2 0.00 0.69 0.00 85 1012.6
20260507003034 58 86 1.7 5.2 0.00 0.69 0.00 85 1012.6
20260507002514 58 77 0.9 5.2 0.00 0.69 0.00 85 1012.5
20260507002016 58 75 1.7 6.1 0.00 0.69 0.00 85 1012.5
20260507001537 58 81 3.5 6.1 0.00 0.69 0.00 84 1012.6
20260507001016 58 88 1.7 3.5 0.00 0.69 0.00 85 1012.6
20260507000517 58 77 0.9 2.6 0.00 0.70 0.00 85 1012.6
20260507000016 58 125 0.9 2.6 0.00 0.70 0.00 85 1012.6
20260506235516 58 123 0.9 2.6 0.00 0.71 0.00 85 1012.6
20260506235016 58 134 0.9 3.5 0.00 0.76 0.00 84 1012.6
20260506234516 58 72 1.7 6.1 0.00 0.78 0.00 84 1012.7
20260506234016 58 75 2.6 6.1 0.00 0.87 0.00 84 1012.8
20260506233536 58 73 2.6 6.1 0.00 0.90 0.00 84 1012.8
20260506233017 58 101 1.7 6.1 0.00 0.91 0.00 84 1012.8
20260506232514 58 78 1.7 6.1 0.00 0.91 0.00 84 1012.8
20260506232016 58 79 3.5 6.1 0.00 0.91 0.00 84 1012.8
20260506231516 58 73 1.7 4.3 0.00 0.91 0.00 84 1012.8
20260506231016 58 74 1.7 3.5 0.00 0.91 0.00 84 1012.7
20260506230537 58 74 1.7 5.2 0.00 0.91 0.00 84 1012.8
20260506230016 58 82 1.7 5.2 0.00 0.91 0.00 83 1012.7
20260506225536 58 83 1.7 5.2 0.00 0.91 0.00 83 1012.6
20260506225016 58 69 2.6 4.3 0.00 0.91 0.00 83 1012.6
20260506224516 58 81 1.7 4.3 0.00 0.91 0.00 84 1012.5
20260506224016 58 97 1.7 4.3 0.00 0.91 0.00 84 1012.5
20260506223516 58 111 0.0 2.6 0.00 0.91 0.00 83 1012.5
20260506223016 58 119 0.9 3.5 0.00 0.91 0.00 83 1012.7
20260506222516 58 122 1.7 3.5 0.00 0.91 0.00 83 1012.6
20260506222037 58 115 0.9 6.1 0.00 0.91 0.00 83 1012.6
20260506221516 58 88 0.9 6.1 0.00 0.91 0.00 83 1012.5
20260506221016 58 100 2.6 5.2 0.00 0.91 0.00 83 1012.6
20260506220517 58 104 0.9 5.2 0.00 0.91 0.00 82 1012.6
20260506220016 58 95 1.7 5.2 0.00 0.91 0.91 82 1012.6
20260506215515 58 106 2.6 6.1 0.00 0.91 0.91 82 1012.6
20260506215014 58 104 2.6 7.0 0.00 0.91 0.91 82 1012.6
20260506214517 58 106 2.6 7.0 0.00 0.91 0.91 82 1012.6
20260506214016 58 105 2.6 6.1 0.00 0.91 0.91 82 1012.6
20260506213517 58 88 2.6 6.1 0.00 0.91 0.91 81 1012.6
20260506213057 58 94 2.6 6.1 0.00 0.91 0.91 81 1012.6
20260506212537 58 91 2.6 7.0 0.00 0.91 0.91 81 1012.6
20260506212017 59 89 2.6 7.0 0.00 0.91 0.91 81 1012.6
20260506211517 59 102 1.7 5.2 0.00 0.91 0.91 80 1012.6
20260506211016 59 113 1.7 6.1 0.00 0.91 0.91 80 1012.6
20260506210516 59 108 1.7 6.1 0.00 0.91 0.91 80 1012.7
20260506210016 59 123 2.6 6.1 0.00 0.91 0.91 80 1012.6
20260506205517 59 114 1.7 6.1 0.00 0.91 0.91 80 1012.6
20260506205017 60 120 1.7 5.2 0.00 0.91 0.91 79 1012.6
20260506204517 60 102 1.7 6.1 0.00 0.91 0.91 79 1012.6
20260506204016 60 89 2.6 7.0 0.00 0.91 0.91 79 1012.5
20260506203516 60 98 2.6 7.0 0.00 0.91 0.91 79 1012.6
20260506203015 61 104 1.7 6.1 0.00 0.91 0.91 79 1012.5
20260506202516 61 101 1.7 6.1 0.00 0.91 0.91 79 1012.5
20260506202016 61 108 1.7 5.2 0.00 0.91 0.91 79 1012.5
20260506201517 61 107 1.7 5.2 0.00 0.91 0.91 79 1012.5
20260506201017 62 113 1.7 4.3 0.00 0.91 0.91 79 1012.4
20260506200537 62 114 1.7 4.3 0.00 0.91 0.91 79 1012.3
20260506200058 62 81 1.7 3.5 0.00 0.91 0.91 79 1012.3
20260506195519 62 76 1.7 4.3 0.00 0.91 0.91 79 1012.2
20260506195016 62 72 2.6 4.3 0.00 0.91 0.91 78 1012.2
20260506194517 62 64 1.7 4.3 0.00 0.91 0.91 78 1012.1
20260506194017 62 100 1.7 4.3 0.00 0.91 0.91 78 1012.1
20260506193516 62 110 0.9 4.3 0.00 0.91 0.91 78 1012.0
20260506193017 62 86 0.9 3.5 0.00 0.91 0.91 78 1011.9
20260506192516 63 127 1.7 3.5 0.00 0.91 0.91 78 1011.7
20260506192016 63 128 0.9 3.5 0.00 0.91 0.91 78 1011.7
20260506191518 63 95 0.9 2.6 0.00 0.91 0.91 77 1011.7
20260506191038 63 86 1.7 3.5 0.00 0.91 0.91 77 1011.6
20260506190517 63 120 1.7 3.5 0.00 0.91 0.91 77 1011.5
20260506190021 63 118 0.9 5.2 0.00 0.91 0.91 77 1011.5
20260506185516 63 125 0.9 7.0 0.00 0.91 0.91 77 1011.3
20260506185016 63 121 3.5 7.0 0.00 0.91 0.91 77 1011.2
20260506184537 63 114 3.5 7.8 0.00 0.91 0.91 76 1011.2
20260506184016 63 126 4.3 7.8 0.00 0.91 0.91 76 1011.1
20260506183556 63 134 2.6 5.2 0.00 0.91 0.91 76 1011.1
20260506183016 63 144 1.7 6.1 0.00 0.91 0.91 76 1011.1
20260506182516 63 136 2.6 7.0 0.00 0.91 0.91 76 1010.9
20260506182016 63 118 2.6 7.0 0.00 0.91 0.91 75 1010.7
20260506181516 63 113 1.7 7.0 0.00 0.91 0.91 75 1010.7
20260506181036 64 104 3.5 7.8 0.00 0.91 0.91 75 1010.7
20260506180537 64 124 2.6 7.8 0.00 0.91 0.91 74 1010.7
20260506180016 64 119 3.5 7.8 0.00 0.91 0.91 73 1010.7
20260506175516 64 141 2.6 7.0 0.00 0.91 0.91 73 1010.7
20260506175016 64 93 2.6 7.8 0.00 0.91 0.91 72 1010.6
20260506174516 65 138 2.6 9.6 0.00 0.91 0.91 72 1010.5
20260506174016 65 96 2.6 9.6 0.00 0.91 0.91 73 1010.6
20260506173516 65 105 1.7 4.3 0.00 0.91 0.91 73 1010.4
20260506173016 64 141 1.7 4.3 0.00 0.91 0.91 74 1010.4
20260506172516 64 91 1.7 6.1 0.00 0.91 0.91 74 1010.4
20260506172016 64 91 1.7 6.1 0.00 0.91 0.91 74 1010.5
20260506171516 64 45 1.7 7.0 0.00 0.91 0.91 75 1010.4
20260506171017 64 114 3.5 9.6 0.00 0.91 0.91 74 1010.4
20260506170516 64 120 4.3 9.6 0.00 0.91 0.91 74 1010.4
20260506170016 65 146 3.5 8.7 0.00 0.91 0.91 74 1010.4
20260506165516 65 152 5.2 8.7 0.00 0.91 0.91 73 1010.4
20260506165036 65 167 3.5 8.7 0.00 0.91 0.91 72 1010.4
20260506164516 66 150 3.5 8.7 0.00 0.91 0.91 72 1010.4
20260506164016 66 193 2.6 9.6 0.00 0.91 0.91 73 1010.4
20260506163517 66 68 2.6 9.6 0.00 0.91 0.91 72 1010.4
20260506163017 66 107 2.6 10.4 0.00 0.91 0.91 73 1010.5
20260506162516 66 144 3.5 11.3 0.00 0.91 0.91 74 1010.5
20260506162016 66 177 3.5 11.3 0.00 0.91 0.91 75 1010.6
20260506161536 66 107 4.3 11.3 0.00 0.91 0.91 75 1010.5
20260506161016 65 150 4.3 9.6 0.00 0.91 0.91 76 1010.5
20260506160516 65 147 4.3 11.3 0.00 0.91 0.91 75 1010.5
20260506160016 65 149 4.3 11.3 0.00 0.91 0.91 75 1010.4
20260506155516 65 182 5.2 10.4 0.00 0.91 0.91 75 1010.5
20260506155016 66 169 4.3 10.4 0.00 0.91 0.91 74 1010.5
20260506154516 66 153 2.6 8.7 0.00 0.91 0.91 75 1010.5
20260506154016 67 159 4.3 8.7 0.00 0.91 0.91 74 1010.5
20260506153516 67 153 3.5 7.8 0.00 0.91 0.91 75 1010.5
20260506153036 67 114 2.6 7.8 0.00 0.91 0.91 75 1010.4
20260506152516 67 108 1.7 7.8 0.00 0.91 0.91 75 1010.3
20260506152016 67 170 3.5 7.8 0.00 0.91 0.91 75 1010.3
20260506151516 67 148 2.6 7.8 0.00 0.91 0.91 74 1010.3
20260506151056 67 153 3.5 7.8 0.00 0.91 0.91 74 1010.2
20260506150516 67 147 2.6 7.0 0.00 0.91 0.91 75 1010.3
20260506150016 67 158 2.6 8.7 0.00 0.91 0.91 75 1010.2
20260506145516 67 131 2.6 8.7 0.00 0.91 0.91 75 1010.2
20260506145016 67 168 3.5 6.1 0.00 0.91 0.91 74 1010.3
20260506144516 67 216 2.6 9.6 0.00 0.91 0.91 74 1010.2
20260506144016 67 153 5.2 9.6 0.00 0.91 0.91 74 1010.2
20260506143516 67 283 3.5 9.6 0.00 0.91 0.91 73 1010.1
20260506143036 68 166 4.3 9.6 0.00 0.91 0.91 74 1010.1
20260506142536 68 243 3.5 11.3 0.00 0.91 0.91 74 1010.1
20260506142016 68 141 4.3 11.3 0.00 0.91 0.91 74 1010.1
20260506141516 68 155 3.5 7.8 0.00 0.91 0.91 75 1010.1
20260506141016 67 96 1.7 13.0 0.00 0.91 0.91 76 1010.1